Location: La Brionne
(46.1728°N, 1.7849°E)
Time: 21:54:09
(UTC+00:00)

Cosmos 1844 - Pass Details

Date: 16 June 2021
Orbit: 823 x 867 km, 70.9° (Epoch: 01 August)

Event Time Altitude Azimuth Distance (km) Brightness Sun altitude
Rises 21:18:45 0° 335° (NNW) 3,370 8.7 -12.1°
Reaches altitude 10° 21:21:13 10° 338° (NNW) 2,435 7.5 -12.3°
Maximum altitude 21:26:45 65° 61° (ENE) 908 3.8 -12.9°
Enters shadow 21:30:50 19° 140° (SE) 1,898 4.9 -13.3°
